GFSNW_2pvu_pres_186.txt.gz
Presure
134 178 171 132 128 141 140 131 138 167 181 130 133 199 178 116 159 179 145 168 176 130 199 171 140 213 235 186 224 243 239 165 191 245 243 196 152 272 293 254 306 318 332 328
131 168 183 167 144 129 168 153 162 184 163 139 154 162 194 162 178 179 156 153 166 198 147 189 212 199 213 228 202 204 229 239 214 230 225 238 189 166 152 137 142 149 295 292
178 171 157 157 154 150 135 142 160 156 145 151 153 129 153 139 153 158 195 169 151 191 189 187 158 183 142 197 142 216 180 218 227 232 214 234 157 187 204 239 238 199 195 140
213 170 213 147 136 123 161 122 177 139 146 177 137 127 132 141 185 179 151 170 179 177 175 167 114 176 193 211 203 216 217 211 215 218 225 203 234 228 233 233 236 232 237 241
188 185 197 227 190 166 207 191 141 148 181 177 125 177 165 189 146 132 126 173 146 189 197 194 198 180 185 186 200 210 167 214 208 227 209 196 173 184 177 228 163 166 235 229
203 194 195 186 234 192 199 207 159 198 185 178 171 160 172 180 175 181 182 166 171 189 181 175 176 191 178 196 184 192 189 201 173 172 208 190 205 160 217 204 216 230 227 179
194 204 172 179 181 201 211 190 177 185 194 184 182 173 139 175 167 165 180 175 169 178 186 188 187 192 185 205 183 193 193 190 195 168 210 207 212 219 215 205 214 222 219 212
220 212 200 196 195 177 185 206 198 197 190 187 186 180 180 176 179 176 177 176 174 155 181 176 184 185 186 187 175 193 204 200 201 203 197 199 206 198 207 206 177 213 193 158
201 207 193 211 246 234 188 204 183 197 191 189 186 189 176 183 186 182 155 179 170 187 179 168 187 169 186 194 186 178 186 182 189 193 183 191 201 203 191 159 176 200 189 163
232 183 201 172 173 189 203 181 199 193 200 189 192 180 186 168 168 182 184 186 185 193 178 167 175 181 185 179 175 189 194 195 190 193 190 202 195 199 203 203 196 208 199 187
237 225 175 224 190 191 226 231 206 204 228 176 191 186 174 189 183 183 191 186 178 180 175 190 158 171 167 183 180 188 184 184 193 177 184 178 190 181 192 194 197 200 207 204
141 239 160 239 174 160 144 233 191 205 192 216 187 192 184 186 177 181 180 181 172 175 183 177 172 177 186 175 170 183 176 192 182 176 177 188 178 193 184 189 197 199 196 201
301 229 252 259 244 237 163 211 213 187 213 207 204 186 200 194 187 188 180 184 181 181 182 176 186 188 172 177 186 187 176 180 185 174 185 178 192 183 197 188 196 180 187 197
262 212 224 165 209 217 144 151 162 181 173 231 186 191 198 186 189 191 182 185 186 180 181 185 181 176 191 181 184 179 185 182 165 178 185 182 193 184 184 186 180 195 184 196
359 371 355 335 248 134 256 172 200 239 181 190 177 155 188 181 193 165 186 190 188 193 192 182 189 182 187 198 185 193 189 182 193 188 180 186 188 184 193 192 196 176 182 191
524 338 347 366 320 319 289 167 245 218 187 230 197 207 201 182 207 216 190 197 196 189 190 191 194 194 191 190 182 179 189 178 189 189 188 187 189 188 193 180 190 202 195 173
422 460 565 339 350 335 197 275 247 259 231 202 240 202 228 202 187 198 171 178 188 195 183 202 189 184 182 197 189 183 192 193 180 182 185 181 192 194 190 199 189 184 180 194
397 421 453 350 322 341 225 286 207 267 253 226 241 213 171 237 192 192 183 187 188 188 186 193 191 186 202 189 202 190 200 190 191 185 184 197 201 194 204 183 195 193 186 195
499 488 478 462 527 336 345 300 233 272 257 261 224 249 205 190 219 201 196 187 164 180 184 176 197 187 177 201 193 189 196 194 195 192 188 199 195 193 182 187 196 197 196 201
463 439 446 505 522 553 319 316 289 272 247 266 269 266 253 234 198 187 219 229 196 192 188 189 194 200 191 207 186 195 187 190 192 186 195 198 198 186 198 200 200 200 198 201
492 479 514 523 537 479 305 315 296 280 274 271 211 262 201 239 229 200 193 194 221 218 207 174 182 196 198 188 194 195 200 180 203 200 188 200 201 200 200 196 200 209 217 216
432 491 480 430 427 417 297 305 304 230 272 279 264 256 254 248 241 212 231 201 223 232 211 197 217 180 206 194 192 193 193 193 204 200 203 202 197 208 214 214 209 207 210 224
321 372 408 378 390 368 290 303 302 291 143 263 255 246 248 249 252 251 246 227 236 234 230 206 204 198 207 202 197 200 203 200 215 216 196 196 196 213 213 221 219 225 221 221
306 299 312 310 343 304 276 285 297 274 273 272 263 251 249 251 250 193 243 244 245 252 239 235 239 240 241 224 219 200 203 201 201 204 196 215 234 228 206 229 221 230 237 236
290 295 294 294 310 291 262 265 283 289 265 258 258 253 252 225 244 239 246 231 233 239 241 236 228 233 241 220 206 254 221 235 214 214 210 217 239 240 238 237 226 243 245 258
297 296 288 290 294 297 285 262 270 276 281 276 260 259 257 254 256 253 255 235 225 239 236 232 242 247 253 256 254 255 258 251 233 237 259 265 258 250 243 243 254 274 218 247
283 294 295 292 291 293 293 258 262 269 276 274 263 273 256 254 237 245 253 254 254 249 248 247 245 246 250 248 255 255 230 240 241 245 241 255 258 261 258 248 243 242 265 289

GFSNW_2pvu_pres_189.txt.gz
Presure
148 138 220 207 192 194 199 135 168 141 157 152 140 146 147 122 136 125 145 164 166 187 175 148 200 150 196 200 216 226 227 227 233 243 225 242 251 266 283 341 334 335 326 326
192 202 198 207 145 196 150 149 154 184 157 128 179 139 162 132 140 183 130 154 142 154 175 188 170 197 152 154 199 215 145 224 226 226 236 247 237 224 218 263 156 330 343 225
207 167 193 202 204 185 180 171 139 129 158 160 176 148 167 131 132 188 128 140 152 127 160 158 159 198 157 178 202 197 206 206 214 219 221 224 198 196 241 239 252 259 171 196
186 186 191 188 193 195 203 126 205 173 204 207 170 157 178 190 186 174 181 171 192 177 171 186 186 194 167 194 205 190 193 183 198 212 215 220 189 200 231 239 240 238 244 248
183 194 237 193 183 224 203 185 189 199 197 208 202 195 196 197 191 131 188 185 130 192 175 186 178 186 186 194 184 175 189 203 202 210 201 213 214 221 217 193 227 226 235 235
190 169 169 199 215 193 221 183 192 217 201 178 168 201 199 198 198 178 194 191 195 180 181 159 178 182 184 178 187 187 200 197 178 128 203 138 205 210 207 216 219 217 220 225
211 195 189 220 213 208 211 192 201 206 185 202 194 177 194 199 197 195 124 183 186 194 185 187 186 187 184 185 191 182 187 186 196 202 195 182 196 158 204 207 203 211 211 215
163 190 137 215 207 174 228 176 221 180 214 181 175 183 188 201 189 190 193 152 190 192 188 194 186 188 179 189 191 187 189 178 188 192 194 193 191 201 198 198 197 200 183 208
224 226 228 226 216 208 214 183 198 236 194 257 188 204 202 199 178 190 193 191 162 191 183 186 181 175 183 192 186 185 182 193 188 186 193 191 183 182 178 188 192 200 199 193
219 205 223 233 225 227 195 182 218 224 172 144 198 193 187 188 185 182 193 197 193 189 180 190 187 185 192 197 185 157 188 176 178 196 172 179 191 186 183 185 187 195 191 196
148 249 259 241 225 189 249 243 229 216 169 206 202 209 208 186 165 198 199 182 177 196 191 189 188 187 191 185 194 188 182 174 183 187 174 190 188 185 178 188 180 192 184 198
335 287 283 263 278 264 275 250 244 247 217 236 170 174 193 209 204 204 196 178 183 190 196 189 178 188 190 185 187 189 177 186 177 182 176 188 183 183 183 179 192 183 188 194
336 312 271 176 265 272 262 270 256 180 259 227 204 242 217 188 206 210 197 198 197 201 190 188 188 187 188 182 192 187 187 190 188 189 178 183 190 193 193 189 190 196 194 193
325 314 319 321 330 306 303 279 173 242 215 257 253 230 237 224 190 192 193 195 190 200 201 183 188 189 190 189 188 189 189 188 190 188 194 190 187 198 182 173 192 189 190 189
474 488 365 447 326 340 347 328 276 243 266 265 227 242 142 225 185 181 233 208 204 214 189 200 193 193 199 180 179 188 188 188 189 193 190 190 192 195 190 189 199 183 197 189
441 477 484 489 500 334 333 335 317 158 264 151 260 264 231 245 229 230 226 201 142 206 179 203 188 195 201 198 194 189 191 199 203 196 182 191 192 191 195 191 194 197 200 191
439 442 439 444 456 467 490 376 356 318 343 288 264 264 149 167 214 235 209 234 201 197 187 182 209 200 189 178 198 166 195 182 189 191 190 182 202 199 186 189 191 195 191 182
355 348 348 354 375 415 449 473 264 212 319 348 300 247 293 295 247 236 236 233 213 212 192 193 209 203 192 212 198 198 208 183 185 189 185 182 207 184 184 187 195 203 201 198
323 326 355 443 388 412 346 65 75 503 317 285 320 308 295 288 255 243 235 237 218 233 189 186 209 197 186 190 195 211 210 190 181 184 189 188 189 188 195 200 198 189 198 193
331 337 347 373 390 411 367 369 303 416 457 323 321 330 86 287 290 248 240 234 235 227 198 198 230 214 168 185 196 198 193 197 196 189 186 177 190 192 193 192 198 201 210 203
323 451 364 341 362 424 384 349 383 413 454 413 79 318 334 181 285 281 238 236 240 236 212 234 236 220 195 180 211 203 204 200 213 198 200 211 190 193 189 196 209 198 200 211
361 417 447 346 345 354 349 357 363 380 480 427 352 303 320 313 282 267 269 240 243 240 244 232 241 227 198 190 190 228 211 199 218 207 206 205 209 206 205 212 223 219 218 194
319 376 407 464 393 375 370 360 369 447 365 339 408 300 306 308 291 284 266 255 250 248 242 243 229 233 234 221 214 227 228 233 224 205 207 224 239 201 207 214 214 213 210 202
302 324 350 359 382 372 366 389 349 332 336 344 365 296 304 304 281 278 265 259 247 243 247 250 249 238 227 239 244 232 235 222 210 225 216 233 230 216 217 243 226 200 251 252
298 302 303 311 311 374 346 355 330 326 349 348 333 280 284 279 272 268 263 266 249 251 246 243 243 245 242 233 235 236 233 242 246 243 247 237 242 257 256 255 252 233 228 246
289 294 296 293 291 290 321 363 355 360 338 329 326 271 278 278 270 267 265 263 266 258 248 252 247 236 236 236 225 238 245 247 246 249 244 245 205 254 249 245 254 249 246 269
286 295 293 281 280 285 290 288 300 310 319 329 321 264 272 277 276 250 253 256 262 259 259 258 245 246 248 246 245 248 251 247 250 246 242 251 251 255 259 259 258 215 271 278

GFSNW_2pvu_pres_192.txt.gz
Presure
206 218 207 174 210 210 202 210 168 182 153 196 207 203 139 150 122 188 133 196 124 185 195 139 146 161 116 157 196 193 215 209 218 224 228 228 141 254 257 328 329 328 330 331
203 203 205 200 190 195 194 189 204 213 177 206 207 207 208 189 138 150 203 132 198 190 144 160 192 188 147 169 196 186 200 211 219 223 221 233 217 213 248 260 263 328 335 328
181 206 199 186 196 188 201 191 179 204 166 177 196 199 182 199 184 204 140 195 130 187 192 160 182 189 194 157 181 189 191 203 148 210 217 217 217 229 221 235 250 254 268 327
210 173 197 178 165 200 187 178 194 190 235 190 197 198 195 188 186 189 133 205 201 197 203 197 188 199 189 192 182 186 134 192 188 207 172 208 187 216 219 198 218 229 246 226
203 191 193 218 193 202 198 185 189 184 221 162 206 219 223 195 182 200 131 199 175 202 206 200 185 132 193 184 194 194 205 193 192 191 204 192 195 171 208 202 219 218 216 232
184 195 187 198 180 211 220 218 191 205 199 171 183 173 180 196 190 203 199 185 198 206 154 209 204 204 178 185 167 168 185 189 171 195 194 203 190 189 187 139 209 207 212 221
205 205 205 211 211 211 174 192 174 199 196 194 215 220 190 225 182 186 213 139 199 178 188 207 202 192 199 193 193 191 184 185 184 190 185 176 196 202 198 181 196 190 180 212
191 219 203 207 222 211 209 210 222 194 226 227 205 153 191 176 200 191 215 213 188 184 192 201 171 196 197 200 142 191 189 186 191 205 181 179 197 186 150 179 200 199 207 190
236 229 219 215 227 230 218 204 236 225 230 212 205 221 190 221 198 220 222 209 200 202 199 195 197 198 196 199 193 193 200 184 187 194 178 180 185 191 179 173 201 179 192 198
237 252 248 183 173 152 218 239 224 227 186 243 217 193 229 211 214 186 220 179 226 219 205 198 196 178 184 195 199 199 193 188 188 193 194 173 185 187 188 193 185 185 198 178
263 253 253 255 262 259 165 243 250 249 243 234 238 230 201 232 220 190 181 202 220 190 198 194 204 184 184 187 177 187 204 202 202 194 190 183 177 188 177 185 191 186 183 196
298 308 311 302 316 337 202 274 268 227 262 254 138 140 229 211 210 209 192 226 194 176 197 196 188 200 196 191 195 196 197 198 195 193 191 185 189 186 191 195 190 179 193 197
286 288 288 287 282 292 289 302 346 311 146 282 199 241 270 248 220 212 175 241 192 175 220 220 176 210 189 192 193 193 197 198 196 196 193 198 199 195 191 190 194 199 198 190
321 334 336 329 325 345 340 333 354 342 358 344 294 277 272 278 260 239 238 209 229 209 227 209 198 201 198 187 191 187 190 199 185 190 195 180 197 197 195 190 191 192 194 196
283 276 309 323 294 290 287 309 300 331 257 346 171 358 286 276 281 193 204 238 241 225 232 201 191 202 202 195 206 186 191 189 185 184 190 199 195 194 195 192 195 200 198 199
375 424 427 427 425 423 426 429 458 472 478 441 325 342 93 310 297 293 261 241 239 243 228 203 235 193 236 203 168 172 186 178 180 197 199 201 176 190 194 203 209 196 186 190
419 406 402 426 431 427 422 157 80 110 429 447 483 356 331 324 309 176 150 179 241 244 231 191 222 234 229 209 182 203 191 190 194 198 200 206 202 197 180 196 199 202 209 192
403 422 407 389 373 375 385 381 237 191 404 158 452 510 419 299 277 247 282 268 251 242 246 240 229 182 236 207 183 210 203 203 188 192 200 206 204 208 208 193 204 197 204 210
400 380 347 341 345 350 141 70 287 263 360 378 412 460 530 295 289 316 299 286 257 246 242 233 213 228 240 186 200 208 222 205 201 183 185 198 210 201 208 193 216 202 208 197
345 328 323 329 334 310 343 340 327 366 94 95 390 194 447 471 295 328 294 297 288 254 242 162 239 235 225 227 224 232 220 216 206 205 201 190 218 210 213 188 210 204 198 194
326 334 326 329 335 340 338 331 327 351 332 299 175 313 325 121 417 311 319 302 292 277 251 242 239 240 229 223 224 222 233 215 236 215 202 235 196 207 210 209 208 199 205 199
300 314 339 308 356 338 339 338 336 411 442 354 235 334 379 425 505 309 307 293 315 279 273 227 170 237 237 230 228 229 226 232 234 233 222 239 200 181 220 223 211 198 200 211
296 289 297 327 335 344 339 337 349 334 336 328 331 354 404 541 431 383 300 299 312 324 278 266 171 242 240 233 233 230 231 229 230 232 234 229 211 216 239 228 227 226 204 213
287 329 281 382 471 328 331 330 337 324 320 321 344 380 389 421 395 355 337 293 300 329 306 278 263 253 244 264 256 233 231 231 231 231 233 236 238 239 226 224 240 247 244 242
309 284 314 319 326 346 406 353 379 314 323 307 329 381 355 338 348 373 375 287 293 313 309 287 270 260 256 257 246 235 234 232 231 232 233 240 240 239 240 243 241 242 246 237
281 304 309 303 308 324 331 316 303 298 304 308 306 314 337 334 326 336 362 289 286 297 301 285 264 255 257 256 255 257 254 247 243 240 239 239 240 236 244 249 247 248 248 246
301 288 296 287 299 297 331 293 293 289 303 305 323 302 301 317 323 335 325 270 275 276 287 287 281 267 259 258 248 248 255 255 250 244 241 241 242 244 239 243 239 244 251 251

GFSNW_2pvu_pres_195.txt.gz
Presure
194 186 198 201 193 199 216 207 202 211 221 210 175 199 200 191 207 126 205 158 199 140 205 210 205 196 184 200 153 147 194 206 210 203 218 216 231 235 248 272 321 330 321 328
205 216 166 208 211 214 222 236 223 204 214 185 197 126 193 189 182 198 198 183 174 200 206 172 198 209 198 142 199 182 185 193 201 214 207 145 219 229 228 244 260 288 320 320
226 199 201 215 210 207 184 214 203 189 199 186 204 191 180 200 198 197 195 162 179 130 183 124 179 207 198 191 178 161 142 192 184 184 211 170 193 215 222 223 196 243 268 322
219 214 230 192 230 186 201 195 201 208 184 203 168 174 195 183 191 212 179 206 199 192 119 182 200 132 203 209 129 203 139 192 190 171 191 208 196 177 220 211 218 227 231 248
194 199 183 195 194 222 219 190 209 186 210 196 186 191 204 198 186 194 213 183 195 186 212 167 198 183 200 170 206 207 204 197 192 168 190 201 208 212 206 176 217 219 218 226
202 210 190 208 207 211 206 213 187 220 194 174 174 213 214 189 198 197 196 166 184 190 212 183 177 202 202 192 197 180 204 197 200 183 185 188 184 201 208 189 195 204 218 206
206 151 201 206 185 202 178 211 211 199 197 196 202 180 203 185 168 184 198 207 199 211 205 221 202 194 190 200 183 200 205 202 190 197 162 180 192 192 197 199 201 203 190 175
214 179 201 225 172 202 214 224 220 226 231 226 215 227 227 218 221 216 211 197 181 216 217 196 209 186 205 187 199 207 184 209 199 193 197 189 191 185 199 182 193 186 196 208
232 239 242 246 247 233 251 250 254 254 242 232 224 225 231 227 181 217 223 229 228 191 205 187 189 196 189 197 198 200 200 206 202 194 125 182 194 205 176 176 188 181 200 207
259 241 220 255 249 253 264 265 260 249 260 252 255 223 213 241 232 216 207 210 215 218 184 224 211 237 212 207 206 205 206 196 180 192 195 197 189 175 197 179 182 188 186 199
296 290 231 275 292 276 299 318 306 303 310 290 260 171 204 249 241 235 231 229 225 230 231 193 222 225 225 198 213 201 204 195 206 201 193 184 191 201 203 196 189 171 193 198
279 332 343 324 277 265 280 151 337 351 318 329 322 280 268 256 242 242 223 236 229 232 224 217 214 227 195 189 201 205 208 203 196 200 197 199 198 191 190 195 195 194 195 193
308 321 290 260 297 277 352 342 332 337 345 296 306 309 305 316 280 262 264 254 237 228 231 226 223 219 226 213 181 209 198 189 205 190 196 202 199 198 194 202 195 203 185 187
312 298 293 288 312 311 322 322 321 327 332 197 171 240 267 293 291 306 327 295 273 238 231 233 198 228 219 207 228 224 214 196 198 200 186 188 201 191 199 194 200 201 200 189
332 311 299 296 398 433 424 421 422 415 410 291 67 71 289 291 246 296 285 227 308 279 250 247 241 236 230 226 193 224 210 187 200 204 179 192 190 201 195 204 201 191 192 193
308 299 441 427 409 394 386 393 379 399 415 407 426 474 83 287 308 325 337 158 282 273 290 277 254 242 238 240 244 211 236 217 215 207 183 203 201 179 198 192 209 196 199 193
450 424 409 396 373 362 354 425 308 100 104 117 246 91 479 409 426 369 275 320 318 294 326 303 273 256 252 253 252 233 237 206 208 216 184 190 195 208 200 200 210 187 201 193
411 393 377 358 333 379 409 391 318 187 236 370 308 441 467 442 442 452 476 355 284 324 319 323 305 272 273 271 245 237 235 226 204 209 196 203 200 208 209 193 204 205 203 182
377 352 337 389 383 389 363 351 345 345 278 71 95 178 374 376 405 415 432 456 479 320 319 255 328 284 284 205 250 237 233 227 228 194 211 226 203 220 217 208 203 207 204 194
334 331 396 405 353 345 338 333 326 331 338 80 349 329 108 120 342 384 390 429 465 484 315 325 273 308 301 281 254 252 244 230 164 224 209 215 229 223 225 203 196 200 201 232
368 386 379 328 323 318 320 327 322 319 330 81 82 76 169 374 339 215 377 402 450 466 311 316 312 332 320 297 277 255 243 229 225 230 227 226 213 225 228 222 222 196 208 221
380 351 321 313 314 320 327 304 333 341 328 299 148 389 79 189 327 348 375 388 403 463 490 302 318 209 318 295 265 268 247 239 229 227 229 229 225 226 230 232 233 225 232 233
373 316 310 306 311 305 384 379 368 333 294 306 392 90 281 322 326 333 361 397 416 419 388 319 314 310 309 293 275 241 253 245 234 227 225 229 228 225 225 222 222 222 232 233
318 304 297 299 311 285 424 351 339 303 310 310 318 327 325 327 327 343 373 398 424 425 427 355 283 280 274 291 269 261 249 244 237 236 221 225 228 229 225 225 229 230 226 228
299 298 295 308 307 332 339 332 324 296 301 310 322 347 338 334 341 364 393 416 375 373 377 355 277 269 280 289 258 261 262 249 242 238 235 231 231 232 233 233 233 232 232 235
295 294 326 279 321 332 326 331 350 341 316 308 327 332 361 345 365 358 346 364 345 340 356 327 285 264 273 241 284 261 261 260 253 241 239 238 235 234 233 236 239 236 242 260
294 278 281 315 328 309 306 297 299 299 297 314 322 363 310 387 377 337 334 324 317 331 327 296 357 267 265 269 272 279 272 260 256 256 253 249 250 249 247 250 239 254 256 253

GFSNW_2pvu_pres_198.txt.gz
Presure
195 176 181 215 207 205 218 211 194 218 223 152 218 208 220 225 211 195 192 201 198 196 208 203 200 129 140 195 211 198 213 160 197 188 194 209 210 216 226 239 248 278 322 328
209 218 218 224 223 212 206 215 214 213 216 212 199 166 185 183 193 195 199 201 189 176 203 194 204 205 138 211 161 194 160 211 130 141 171 188 206 217 200 224 237 251 267 309
202 208 216 226 224 225 190 211 219 224 205 239 235 222 220 221 206 199 201 172 174 169 197 150 191 209 204 151 144 201 201 192 151 196 160 176 197 205 209 214 208 229 178 253
228 222 213 211 212 215 223 214 211 213 192 188 214 205 193 202 189 191 165 199 199 189 209 197 201 152 219 165 197 122 192 205 196 150 171 191 179 177 206 206 196 214 224 228
221 213 211 200 204 145 209 217 218 223 223 218 192 189 188 220 191 205 190 217 195 206 194 217 194 199 175 202 201 183 194 203 139 195 198 191 188 193 194 205 197 220 212 224
216 192 220 225 220 216 216 215 214 209 211 206 211 212 212 206 212 187 182 203 195 183 202 199 214 188 182 181 155 210 209 205 202 194 202 198 185 189 173 179 205 201 212 208
226 221 151 221 223 223 223 228 224 220 227 217 204 143 212 208 211 187 202 211 193 192 189 185 189 219 186 171 194 207 215 191 199 193 197 202 194 190 156 183 191 201 203 205
155 231 222 230 216 230 230 228 151 235 161 174 231 223 235 227 218 225 223 218 217 222 228 229 227 182 229 198 188 202 195 213 217 204 201 193 200 198 188 186 199 198 188 199
237 133 236 167 199 242 242 236 153 242 258 250 262 267 259 260 263 261 251 244 244 239 235 236 235 236 227 218 180 195 209 213 207 213 207 167 196 203 200 192 197 185 186 190
237 239 247 250 252 283 268 276 267 296 314 265 131 296 361 300 279 272 253 242 232 228 238 242 241 233 203 215 230 226 212 192 215 223 202 209 193 155 194 191 188 197 177 177
245 248 238 261 267 260 266 294 280 301 323 351 295 290 372 362 320 286 277 317 283 255 239 242 236 244 247 240 229 218 211 210 223 214 211 210 188 180 200 195 189 194 189 206
254 252 256 273 269 295 283 302 300 308 332 147 321 321 347 305 351 335 298 296 312 309 265 251 246 237 247 249 243 242 209 211 225 234 221 221 202 201 206 202 204 196 200 200
260 263 269 279 285 289 305 327 327 245 287 307 119 163 267 137 328 273 282 355 317 319 291 298 268 256 247 246 246 242 224 224 191 230 200 198 173 198 193 198 198 193 199 206
257 273 287 282 279 323 337 374 291 312 325 336 260 206 322 305 334 340 329 356 243 327 304 293 299 282 253 249 246 245 238 237 212 228 228 202 195 192 195 188 204 204 198 202
277 270 284 263 305 358 327 332 317 290 291 160 89 87 419 393 379 299 305 321 326 338 333 316 293 311 272 255 259 250 231 230 228 218 222 220 208 204 215 211 204 200 206 209
273 319 346 279 346 319 322 299 438 397 387 386 392 333 401 391 401 403 406 410 306 318 325 329 343 342 307 297 281 272 239 233 233 220 219 224 219 216 212 209 205 196 198 190
239 300 353 316 308 310 430 425 395 376 369 363 383 390 468 426 402 400 399 114 170 409 304 321 335 347 335 275 290 303 270 254 241 243 229 225 206 214 219 212 212 207 201 187
345 326 307 289 441 403 391 370 355 340 340 294 170 279 117 115 122 121 106 371 389 421 442 407 279 331 300 340 333 293 294 303 267 235 229 225 223 209 201 215 216 214 204 219
307 288 454 434 374 376 347 330 374 404 173 405 245 87 77 146 130 196 349 362 347 380 405 275 435 268 294 136 78 91 144 215 303 236 234 225 223 219 221 203 228 225 215 209
449 442 415 372 347 339 329 396 360 358 341 339 318 309 97 162 92 318 316 342 357 369 377 391 423 460 509 309 317 335 261 267 286 294 256 239 228 222 225 214 232 230 212 213
428 390 362 337 391 388 374 350 340 335 323 317 304 339 330 90 92 220 177 337 336 340 345 362 402 436 501 530 256 184 333 228 264 236 243 246 232 228 233 233 231 232 234 224
378 370 330 359 383 354 338 327 324 305 293 299 353 323 307 312 82 329 309 228 352 341 350 307 406 443 483 378 444 268 308 292 284 286 282 268 238 235 236 231 232 234 235 232
354 325 385 373 329 326 320 315 314 353 386 364 323 309 304 266 120 353 130 310 123 342 363 395 414 424 487 451 483 440 267 303 302 291 279 275 254 244 244 241 233 236 234 226
343 468 381 335 319 314 308 299 291 348 336 329 313 304 309 318 372 351 67 79 134 367 383 402 301 381 396 406 411 402 278 290 301 295 283 266 250 249 251 246 176 240 239 235
468 396 326 319 309 304 295 335 332 319 329 317 313 310 307 310 318 310 178 323 380 431 419 357 347 363 373 390 378 354 285 297 292 290 290 284 278 265 251 242 241 237 215 239
391 322 312 306 301 298 302 323 319 322 323 296 304 306 301 308 311 318 323 404 356 356 361 338 341 330 367 377 379 270 271 269 264 275 281 281 273 260 255 256 254 250 243 237
325 306 307 300 294 292 318 316 317 326 344 314 312 299 317 335 348 355 343 322 315 314 304 307 306 323 326 318 333 272 251 261 268 268 270 273 272 270 262 256 238 238 240 241

GFSNW_2pvu_pres_204.txt.gz
Presure
172 186 190 213 215 217 219 218 217 209 206 209 215 225 220 216 221 224 234 202 230 214 213 209 205 210 214 216 219 214 204 219 206 214 191 207 160 216 199 183 214 212 221 237
198 195 177 197 222 197 223 226 205 201 196 197 183 197 229 233 210 214 224 224 221 221 215 206 223 217 210 217 206 212 207 201 212 210 215 199 214 212 123 181 160 209 207 215
206 224 214 254 251 243 248 249 266 249 247 209 214 245 225 245 236 226 187 231 233 234 234 228 235 219 215 216 211 209 199 199 203 204 206 182 182 215 211 160 195 210 176 213
214 228 232 246 252 248 251 261 237 237 244 231 243 251 243 241 235 231 215 228 227 232 229 226 223 229 212 210 217 211 204 199 203 201 208 194 186 211 235 205 204 196 147 191
233 241 230 254 232 243 259 229 218 156 251 251 246 241 232 229 233 222 219 225 226 227 223 224 218 219 226 223 197 222 209 215 208 213 215 209 190 208 224 206 210 182 188 207
235 232 247 243 242 253 238 247 255 240 234 244 241 245 251 242 233 233 240 238 230 233 234 238 238 246 242 242 231 225 211 210 201 215 208 202 193 197 206 214 229 210 197 206
242 234 250 251 242 177 241 251 240 243 256 244 246 243 239 238 243 244 196 224 228 253 251 249 254 251 254 247 245 232 237 227 216 218 196 214 202 206 222 198 216 166 172 198
258 263 265 259 150 250 253 253 224 243 262 250 200 249 238 252 257 257 253 245 257 262 263 262 270 276 291 165 289 283 254 230 239 233 228 213 201 204 199 193 231 199 198 215
273 256 249 244 252 256 250 247 250 269 268 262 254 252 261 259 251 253 252 255 261 268 277 289 289 297 306 312 320 311 279 295 268 243 239 237 216 214 195 195 235 192 222 202
249 244 249 251 250 246 241 248 257 258 273 262 244 253 253 257 262 265 255 268 279 273 283 290 289 305 295 317 359 358 304 302 286 279 270 274 233 213 223 227 223 226 195 217
250 248 256 245 240 244 252 252 266 267 242 257 260 261 262 264 273 286 284 277 285 279 281 329 354 317 303 352 350 367 356 319 316 316 307 263 235 233 228 215 238 235 229 220
248 242 236 253 258 264 261 248 262 249 259 289 283 121 129 117 136 275 281 290 293 96 369 340 336 334 347 357 382 364 371 352 336 334 312 308 258 238 239 240 240 235 223 215
241 255 255 250 261 258 267 263 195 247 285 107 85 270 148 150 117 148 142 347 360 343 332 268 340 334 322 403 353 333 356 373 367 352 340 311 255 261 218 245 246 234 226 225
256 256 257 255 265 245 254 267 279 274 292 213 86 170 87 105 143 214 319 340 323 315 367 418 440 447 449 468 483 426 331 338 355 352 337 282 307 229 256 223 234 238 240 234
261 257 272 275 254 283 283 297 278 254 296 329 402 301 88 250 206 326 301 117 404 374 414 368 314 417 405 439 454 476 404 351 323 303 308 344 312 300 265 251 237 225 234 232
273 263 283 268 293 289 296 303 274 306 318 262 73 149 93 147 405 93 117 394 418 385 371 376 368 363 393 416 427 455 442 395 322 331 339 363 323 297 275 197 245 243 237 236
287 279 284 277 268 266 274 325 315 315 331 327 315 238 412 230 408 101 88 87 132 142 322 353 403 396 94 214 103 356 438 457 428 168 325 328 319 295 276 283 251 245 233 243
305 292 279 257 277 324 312 314 316 317 305 376 442 401 397 400 295 226 225 282 294 129 360 353 369 376 384 365 408 236 93 334 429 294 317 325 321 310 266 265 278 263 249 239
273 289 298 326 313 317 311 307 308 434 429 561 404 372 384 382 352 348 346 342 94 129 266 105 104 311 233 366 88 91 315 391 102 166 306 301 319 310 286 250 271 264 252 243
307 330 316 318 311 305 313 464 423 408 385 382 398 401 95 350 340 326 345 324 186 281 101 78 100 286 323 223 356 108 380 386 417 392 233 113 330 311 257 263 281 273 258 245
325 321 307 349 447 441 429 402 385 381 376 372 378 363 350 328 321 319 319 244 215 311 173 245 297 303 257 101 348 354 361 378 400 170 242 286 320 177 127 187 292 287 270 254
308 387 459 452 425 402 387 368 401 389 378 370 351 342 335 319 313 306 303 206 309 176 279 106 332 364 372 368 359 349 329 289 370 401 437 436 294 323 318 307 294 222 283 263
435 434 429 392 374 371 456 452 391 371 342 335 319 307 312 309 312 303 300 305 88 323 291 279 320 125 323 327 340 335 284 365 399 387 402 425 465 277 320 316 274 303 225 273
421 398 365 356 488 493 470 397 351 333 333 319 347 347 353 354 328 322 312 305 313 317 316 346 355 369 333 349 397 414 394 400 407 411 431 448 477 451 290 298 189 316 280 266
367 354 382 488 496 468 371 346 341 329 315 335 331 329 327 313 309 302 302 291 309 319 350 348 354 81 367 344 329 347 349 384 422 331 432 465 459 488 373 285 296 302 309 255
359 446 477 463 438 385 342 332 323 310 319 315 317 316 307 303 302 301 298 308 330 335 319 326 335 335 333 335 325 324 328 348 426 599 381 445 408 387 376 284 291 294 303 306
461 476 441 394 365 335 329 314 314 314 308 320 329 329 297 300 300 303 320 349 319 307 296 313 322 303 307 330 323 310 313 337 359 378 346 453 385 370 276 268 273 280 288 295

GFSNW_2pvu_pres_210.txt.gz
Presure
191 185 177 198 206 215 203 220 205 199 229 234 234 221 238 265 250 262 268 259 255 258 246 246 240 253 244 237 239 251 252 249 238 230 233 235 239 223 223 220 210 210 206 221
199 192 195 213 204 202 203 208 214 218 230 229 229 223 242 270 253 260 259 268 263 257 253 262 252 247 250 250 249 248 244 243 238 223 227 239 231 231 217 219 213 219 199 193
193 204 215 207 208 204 226 216 218 215 241 216 238 234 253 269 260 262 261 262 253 254 248 254 247 245 243 242 242 245 245 244 238 153 199 221 231 223 225 220 216 217 194 209
225 197 209 220 224 232 222 212 237 231 240 247 273 279 279 268 258 268 261 253 250 252 249 255 254 250 246 242 241 243 249 253 247 247 229 230 231 228 222 225 220 220 213 218
217 223 206 217 231 236 223 244 253 256 249 232 250 286 272 263 262 259 252 248 251 249 250 249 243 244 245 251 231 258 261 262 260 258 246 251 277 256 250 215 223 215 217 212
220 223 220 228 230 243 251 262 238 250 298 222 282 286 265 266 258 253 251 245 252 254 253 252 242 242 242 254 252 251 254 259 266 272 267 268 274 269 253 237 237 213 221 217
228 244 224 241 251 184 241 240 285 223 280 263 271 276 265 263 260 254 245 254 255 247 245 245 252 259 263 266 262 265 285 272 270 279 274 287 288 259 269 251 248 209 233 214
229 241 226 174 231 244 315 287 276 273 285 255 271 273 266 257 252 251 253 256 252 247 246 254 266 259 262 264 272 270 274 280 278 258 269 289 287 248 268 231 257 270 259 225
247 238 224 220 317 313 224 281 314 279 277 254 269 263 262 258 259 258 253 248 259 266 270 260 262 267 272 272 276 272 266 264 265 270 284 293 108 288 281 290 326 262 265 258
246 261 259 302 315 284 191 272 277 257 259 261 257 262 264 228 260 263 266 265 169 179 265 207 278 278 289 250 219 282 262 262 269 280 287 300 314 278 281 279 292 291 275 261
255 295 280 314 275 299 292 269 269 275 275 274 278 257 266 270 107 106 105 295 282 281 186 174 235 99 231 287 289 306 312 273 316 291 316 303 314 312 296 222 300 299 293 221
280 288 314 288 276 304 290 281 280 287 284 272 278 100 102 144 261 94 292 143 118 277 326 308 308 327 265 270 234 280 280 333 316 329 329 309 83 399 333 352 323 306 301 147
330 286 294 267 300 293 290 259 259 275 293 293 204 283 250 128 118 308 323 130 260 276 242 104 346 338 310 339 150 337 327 235 321 326 330 335 334 339 324 340 345 348 385 302
282 259 273 293 267 260 288 276 156 281 167 193 91 85 108 288 170 120 214 177 166 110 217 89 324 316 318 192 251 479 461 359 449 459 441 369 397 357 321 275 351 343 354 380
273 282 280 267 282 277 289 293 282 290 301 315 276 206 274 125 100 267 181 108 265 312 453 413 435 411 197 412 426 380 361 400 393 376 193 199 423 468 82 184 398 153 353 340
270 269 294 265 257 266 283 296 290 264 272 311 302 86 95 94 66 302 92 91 483 525 439 290 106 89 94 409 352 352 353 362 367 386 386 399 433 427 465 447 115 329 218 335
267 275 253 196 293 294 307 268 270 303 324 319 336 326 311 348 419 173 172 219 458 353 84 110 370 355 370 367 335 287 343 359 367 392 421 439 382 415 471 440 446 398 335 332
288 289 296 305 291 266 266 305 311 311 322 339 318 434 529 432 191 476 252 422 379 109 231 271 322 318 121 320 311 131 325 266 218 352 375 408 411 395 469 440 117 434 324 341
284 297 279 270 273 312 305 306 339 339 339 438 443 489 425 440 442 412 385 384 375 357 349 327 332 326 323 325 310 104 89 243 176 314 331 235 409 374 423 452 405 401 315 331
273 277 287 318 313 360 346 337 326 433 424 415 406 450 362 377 369 392 383 367 355 338 334 335 318 306 298 309 309 114 115 103 116 299 319 335 389 380 417 408 400 348 311 325
288 325 367 355 345 355 426 418 417 415 403 380 376 352 348 383 358 347 352 351 314 312 314 316 305 313 308 239 292 324 160 105 118 354 310 328 384 401 356 378 372 320 300 324
371 351 344 400 397 419 403 399 380 375 359 356 404 360 362 359 345 331 321 316 311 312 305 305 226 311 314 306 304 97 350 374 239 345 349 336 349 390 381 376 357 320 259 321
334 420 426 404 400 456 450 466 464 456 458 484 496 371 357 338 328 349 350 345 351 347 318 297 299 320 294 344 151 329 326 340 354 326 338 352 349 361 384 431 381 312 300 326
398 398 361 349 452 462 456 462 476 464 470 479 368 341 331 335 347 338 329 319 310 298 293 313 320 333 307 310 242 313 324 334 331 348 356 393 343 366 370 393 419 314 286 310
362 348 455 462 458 455 463 458 447 449 370 342 336 337 328 332 317 308 302 294 292 320 313 322 315 314 293 292 292 310 321 327 296 356 351 373 393 348 366 381 383 337 290 295
362 471 458 467 452 435 434 433 387 341 336 328 324 318 324 313 304 297 295 308 315 313 299 291 291 285 286 302 292 290 278 84 187 394 368 373 387 362 370 368 391 330 297 279
356 456 448 420 416 416 414 344 334 323 319 311 315 317 316 304 290 291 310 306 297 297 307 292 305 287 294 292 291 305 318 414 395 373 364 374 170 380 371 375 339 320 309 271

GFSNW_2pvu_pres_213.txt.gz
Presure
203 166 196 184 202 194 209 206 231 213 201 231 219 231 243 250 248 254 256 257 240 272 281 270 269 272 265 262 252 265 261 253 244 243 245 247 248 245 244 242 236 236 223 218
205 195 193 196 194 207 206 249 187 235 240 244 230 254 258 243 259 239 251 254 230 283 279 276 266 267 260 249 250 250 252 259 244 242 243 245 244 241 244 239 232 239 226 218
205 216 198 214 230 220 184 230 221 242 243 234 254 242 236 279 289 239 226 291 284 282 277 267 264 262 250 245 247 250 254 256 252 249 246 242 245 251 246 252 240 242 226 224
200 224 218 229 224 219 196 223 247 257 250 254 305 215 311 334 246 323 298 298 288 292 278 270 265 261 251 248 251 252 255 256 246 247 251 249 245 247 248 253 241 246 226 226
238 212 197 217 169 225 235 241 296 272 291 207 312 306 309 298 309 272 277 263 284 286 268 266 267 258 257 251 244 250 251 256 259 254 245 249 256 263 258 255 250 251 242 230
216 209 222 235 215 226 240 263 269 262 289 316 314 318 292 281 295 274 279 277 256 278 270 256 262 263 254 248 250 249 246 240 253 272 256 259 234 205 246 257 256 265 275 274
225 215 223 239 221 231 264 253 197 294 330 304 300 305 297 303 301 275 276 294 277 264 267 267 267 264 261 257 250 253 254 257 257 264 260 268 187 270 259 253 268 261 269 274
229 216 232 230 242 248 258 259 269 290 299 279 300 299 286 286 276 278 277 276 274 271 273 270 261 250 260 260 258 260 259 264 268 268 270 280 276 280 277 278 274 271 257 266
229 219 234 228 258 295 310 307 286 321 269 255 293 295 283 283 278 281 284 286 286 279 288 285 292 287 274 268 267 96 262 267 272 276 282 76 279 269 278 290 297 291 270 263
225 229 235 249 273 248 297 313 276 290 268 300 286 293 286 277 280 281 277 283 280 235 186 290 293 291 206 258 265 279 278 267 280 296 297 295 310 307 231 305 303 310 298 296
226 237 226 253 251 295 311 287 276 269 276 286 299 281 283 280 283 292 293 292 218 225 304 309 312 316 144 273 278 323 342 346 347 341 324 324 189 114 347 217 332 318 312 325
231 230 250 294 257 305 296 279 281 272 121 278 305 217 257 254 276 291 300 210 237 266 133 110 103 116 277 288 162 131 300 299 325 326 333 290 312 104 240 289 310 319 343 308
244 229 261 295 296 288 281 272 268 276 292 83 298 247 143 261 266 207 265 278 81 325 138 323 118 316 325 96 142 134 305 222 344 130 105 282 153 341 345 244 355 355 359 330
260 265 282 295 275 275 282 304 283 298 295 318 296 304 170 93 144 298 232 83 218 292 246 225 92 311 204 175 327 402 95 406 408 281 344 414 434 450 458 70 495 421 284 355
255 307 310 295 275 271 271 281 283 299 319 150 97 88 241 94 179 221 252 305 103 427 357 465 354 411 98 408 387 365 176 374 281 396 369 364 379 435 371 90 313 497 547 420
300 297 282 282 265 268 294 331 317 284 276 313 327 319 348 350 229 110 130 121 526 117 457 96 398 378 150 89 368 351 347 356 351 380 370 359 380 390 422 465 395 360 285 472
294 280 288 261 297 294 302 280 288 273 333 366 272 366 471 258 201 147 206 496 198 78 183 375 369 349 140 184 231 101 331 324 325 334 349 143 338 366 390 263 383 379 416 544
288 267 286 312 315 279 285 338 372 359 350 354 448 444 448 455 483 440 467 429 76 387 254 305 208 335 337 159 322 319 323 312 315 106 262 328 319 327 357 413 406 382 423 435
291 313 290 281 300 334 331 349 342 343 431 427 427 428 415 380 372 380 376 375 371 354 358 350 340 332 324 332 324 318 317 193 298 262 157 338 95 321 344 388 383 387 440 390
297 280 301 332 323 360 348 340 363 408 388 393 384 391 373 404 396 396 392 355 337 331 335 335 330 330 319 312 306 295 306 113 157 116 115 121 101 322 342 143 379 440 421 403
305 337 320 322 348 337 351 402 382 370 465 464 471 457 344 342 370 339 362 346 329 348 331 331 314 326 308 326 317 316 214 109 120 109 104 102 118 356 347 388 385 425 397 414
324 315 358 339 329 391 381 368 383 462 463 473 485 485 403 351 369 365 350 349 329 312 305 334 316 305 321 322 328 325 314 316 211 208 342 330 332 350 354 377 408 398 379 387
305 346 327 410 385 373 446 466 467 464 466 466 473 484 406 366 358 337 338 355 353 334 310 303 305 314 317 302 304 303 306 310 285 308 325 343 354 336 351 372 400 390 380 373
334 329 389 376 366 431 468 463 447 448 452 457 462 372 342 320 335 352 331 318 311 303 301 308 319 302 297 296 292 298 304 309 316 332 96 327 348 349 333 379 395 387 364 354
363 386 367 351 475 447 441 440 444 446 431 369 350 333 327 343 335 316 311 305 293 307 308 313 298 295 285 289 295 176 84 400 184 92 360 88 93 374 337 378 371 347 351 324
375 362 352 448 431 427 431 426 400 361 341 334 323 315 336 318 312 308 301 305 308 308 298 292 280 288 279 290 292 321 377 382 351 83 349 359 365 366 334 362 426 348 331 309
357 405 445 427 425 423 388 356 340 331 322 314 318 316 321 309 301 304 313 302 293 291 307 296 289 287 295 286 291 285 339 343 373 358 364 358 351 362 336 354 410 340 328 298